McAlester, OK

9:36 PM CDT on May 27, 2017 (GMT -0500)
McAlester Regional

Weather History for KMLC - March, 2013

Change the Weather History Date:

Sunday, March 31, 2013

  Actual Average Record
Temperature  
Mean Temperature 60 °F -  
Max Temperature 71 °F 68 °F 94 °F (1974)
Min Temperature 48 °F 44 °F 24 °F (1987)
Degree Days  
Heating Degree Days 4    
Growing Degree Days 10 (Base 50)    
Moisture  
Dew Point 51 °F    
Average Humidity 75    
Maximum Humidity 94    
Minimum Humidity 36    
Precipitation  
Precipitation 0.50 in - - ()
Sea Level Pressure  
Sea Level Pressure 29.93 in    
Wind  
Wind Speed 8 mph (NNE)    
Max Wind Speed 30 mph    
Max Gust Speed 40 mph    
Visibility 9 miles    
Events Rain , Thunderstorm    
Averages and records for this station are not official NWS values.
T = Trace of Precipitation, MM = Missing Value Source: NWS Daily Summary

Daily Weather History Graph

Daily Weather History Graph

Search for Another Location

Airport or City:

Trip Planner

Search our weather history database for the weather conditions in past years. The results will help you decide how hot, cold, wet, or windy it might be!

Date:

Astronomy

Mar. 31, 2013 Rise Set
Actual Time 7:11 AM CDT 7:43 PM CDT
Civil Twilight 6:45 AM CDT 8:09 PM CDT
Nautical Twilight 6:15 AM CDT 8:39 PM CDT
Astronomical Twilight 5:45 AM CDT 9:09 PM CDT
Moon No Moon Rise 10:09 AM CDT (3/31)
Length of Visible Light 13h 23m
Length of Day
12h 32m
Waning Gibbous, 77% of the Moon is Illuminated
Mar 31
Waning Gibbous
Apr 2
Last Quarter
Apr 10
New
Apr 18
First Quarter
Apr 25
Full

Hourly Weather History & Observations

Time (CDT) Temp. Dew Point Humidity Pressure Visibility Wind Dir Wind Speed Gust Speed Precip Events Conditions
12:53 AM 59.0 °F 51.1 °F 75% 29.89 in 10.0 mi SSW 5.8 mph - N/A   Clear
1:53 AM 57.9 °F 54.0 °F 87% 29.89 in 10.0 mi South 4.6 mph - N/A   Partly Cloudy
2:53 AM 57.0 °F 54.0 °F 89% 29.87 in 10.0 mi SW 3.5 mph - N/A   Scattered Clouds
3:53 AM 55.9 °F 54.0 °F 93% 29.84 in 10.0 mi Calm Calm - N/A   Scattered Clouds
4:53 AM 57.0 °F 55.0 °F 93% 29.83 in 10.0 mi ENE 3.5 mph - N/A   Mostly Cloudy
5:05 AM 59.0 °F 55.4 °F 88% 29.85 in 10.0 mi NE 3.5 mph - N/A Thunderstorm Thunderstorm
5:53 AM 60.1 °F 55.0 °F 83% 29.89 in 10.0 mi North 18.4 mph 27.6 mph 0.01 in Rain , Thunderstorm Light Thunderstorms and Rain
6:07 AM 57.2 °F 55.4 °F 94% 29.86 in 2.5 mi NNE 29.9 mph 40.3 mph 0.08 in Rain , Thunderstorm Heavy Rain
6:29 AM 57.2 °F 55.4 °F 94% 29.93 in 4.0 mi NNW 11.5 mph 24.2 mph 0.28 in Rain , Thunderstorm Heavy Thunderstorms and Rain
6:45 AM 60.8 °F 55.4 °F 82% 29.96 in 6.0 mi NW 10.4 mph - 0.32 in Rain , Thunderstorm Thunderstorms and Rain
6:53 AM 61.0 °F 57.0 °F 87% 29.93 in 5.0 mi NNW 11.5 mph - 0.34 in Rain , Thunderstorm Rain
7:00 AM 60.8 °F 57.2 °F 88% 29.97 in 5.0 mi NNW 13.8 mph 21.9 mph 0.03 in Rain Rain
7:08 AM 60.8 °F 57.2 °F 88% 29.98 in 5.0 mi North 16.1 mph 21.9 mph 0.06 in Rain , Thunderstorm Rain
7:22 AM 59.0 °F 55.4 °F 88% 29.98 in 6.0 mi North 16.1 mph - 0.10 in Rain , Thunderstorm Thunderstorms and Rain
7:43 AM 57.2 °F 55.4 °F 94% 29.94 in 6.0 mi NNE 17.3 mph 24.2 mph 0.15 in Rain Light Rain
7:53 AM 57.0 °F 52.0 °F 83% 29.93 in 10.0 mi NNE 13.8 mph 27.6 mph 0.15 in Rain Light Rain
8:53 AM 55.9 °F 52.0 °F 87% 29.95 in 10.0 mi North 9.2 mph - 0.00 in   Clear
9:53 AM 55.9 °F 50.0 °F 80% 29.96 in 10.0 mi NNE 9.2 mph 17.3 mph N/A   Clear
10:53 AM 59.0 °F 48.9 °F 69% 29.99 in 10.0 mi NNE 8.1 mph - N/A   Clear
11:53 AM 61.0 °F 48.0 °F 62% 29.96 in 10.0 mi NNE 10.4 mph 18.4 mph N/A   Clear
12:53 PM 63.0 °F 48.0 °F 58% 29.98 in 10.0 mi North 10.4 mph - N/A   Clear
1:53 PM 66.0 °F 46.0 °F 48% 29.97 in 10.0 mi North 13.8 mph - N/A   Partly Cloudy
2:53 PM 68.0 °F 45.0 °F 43% 29.96 in 10.0 mi NE 8.1 mph - N/A   Partly Cloudy
3:53 PM 70.0 °F 45.0 °F 41% 29.95 in 10.0 mi NE 6.9 mph - N/A   Partly Cloudy
4:53 PM 71.1 °F 43.0 °F 36% 29.94 in 10.0 mi North 5.8 mph - N/A   Clear
5:53 PM 71.1 °F 43.0 °F 36% 29.93 in 10.0 mi Calm Calm - N/A   Partly Cloudy
6:53 PM 69.1 °F 44.1 °F 40% 29.92 in 10.0 mi ENE 4.6 mph - N/A   Clear
7:53 PM 64.9 °F 45.0 °F 48% 29.93 in 10.0 mi Calm Calm - N/A   Clear
8:53 PM 55.0 °F 48.9 °F 80% 29.95 in 10.0 mi Calm Calm - N/A   Partly Cloudy
9:53 PM 51.1 °F 46.0 °F 83% 29.97 in 10.0 mi Calm Calm - N/A   Partly Cloudy
10:53 PM 50.0 °F 45.0 °F 83% 29.99 in 10.0 mi Calm Calm - N/A   Partly Cloudy
11:53 PM 48.0 °F 44.1 °F 86% 29.99 in 10.0 mi Calm Calm - N/A   Clear